This is the latest recevied weather packets stored in our database for station/object KB1JL-13. If no packets are shown the sender has not sent any weather packets the latest 10 day(s).
| Time | Temp. | Humidity | Pressure | Rain* | Wind** | Luminosity | Snow |
|---|---|---|---|---|---|---|---|
| 1778175352 | 16.11° C | 39% | 1020.2 hPa | 0 mm | - | 674 W/m² | - |
| 1778175049 | 15.56° C | 41% | 1020.2 hPa | 0 mm | - | 673 W/m² | - |
| 1778174745 | 16.11° C | 39% | 1020.2 hPa | 0 mm | - | 669 W/m² | - |
| 1778174442 | 15.56° C | 46% | 1020.5 hPa | 0 mm | - | 658 W/m² | - |
| 1778174137 | 16.11° C | 45% | 1020.5 hPa | 0 mm | - | 662 W/m² | - |
| 1778173835 | 16.11° C | 40% | 1020.5 hPa | 0 mm | - | 652 W/m² | - |
| 1778173531 | 16.11° C | 46% | 1020.5 hPa | 0 mm | - | 642 W/m² | - |
| 1778173228 | 15.56° C | 40% | 1020.5 hPa | 0 mm | - | 644 W/m² | - |
| 1778172924 | 16.11° C | 42% | 1020.5 hPa | 0 mm | - | 642 W/m² | - |
| 1778172621 | 16.11° C | 42% | 1020.5 hPa | 0 mm | - | 655 W/m² | - |
| 1778172317 | 15.56° C | 44% | 1020.9 hPa | 0 mm | - | 662 W/m² | - |
| 1778172014 | 15° C | 44% | 1020.9 hPa | 0 mm | - | 671 W/m² | - |
| 1778171711 | 15° C | 41% | 1020.5 hPa | 0 mm | - | 682 W/m² | - |
| 1778171409 | 15° C | 44% | 1020.9 hPa | 0 mm | - | 691 W/m² | - |
| 1778171104 | 15° C | 40% | 1021.2 hPa | 0 mm | - | 699 W/m² | - |
| 1778170801 | 14.44° C | 47% | 1021.2 hPa | 0 mm | - | 698 W/m² | - |
| 1778170497 | 15° C | 43% | 1020.9 hPa | 0 mm | - | 671 W/m² | - |
| 1778170194 | 15° C | 44% | 1020.9 hPa | 0 mm | - | 634 W/m² | - |
| 1778169890 | 15° C | 43% | 1021.2 hPa | 0 mm | - | 611 W/m² | - |
| 1778169586 | 15° C | 44% | 1021.2 hPa | 0 mm | - | 596 W/m² | - |
| 1778169282 | 15° C | 44% | 1021.2 hPa | 0 mm | - | 661 W/m² | - |
| 1778168979 | 13.89° C | 47% | 1021.2 hPa | 0 mm | - | 741 W/m² | - |
| 1778168675 | 14.44° C | 48% | 1021.2 hPa | 0 mm | - | 714 W/m² | - |
| 1778168373 | 14.44° C | 44% | 1021.2 hPa | 0 mm | - | 700 W/m² | - |
| 1778168070 | 13.89° C | 44% | 1021.6 hPa | 0 mm | - | 709 W/m² | - |
* Rain latest hour (hover to see other rain measurements)
** Current wind speed in m/s (hover to see current wind gust speed)